Location: Marstown
(39.5056°N, 77.0820°W)
Time: 07:05:48
(UTC-04:00)

Tiangong 2 - Visible Passes

Search period start: 26 May 2017 00:00
Search period end: 05 June 2017 00:00
Orbit: 380 x 389 km, 42.8° (Epoch: 24 May)

Date Brightness Start Highest point End Pass type
(mag) Time Alt. Az. Time Alt. Az. Time Alt. Az.
26 May 1.4 21:21:08 10° W 21:24:18 69° NNW 21:27:28 10° ENE visible
26 May 2.3 22:58:13 10° WNW 23:00:58 41° NNW 23:00:58 41° NNW visible
27 May 2.1 21:58:27 10° WNW 22:01:31 44° N 22:04:05 14° ENE visible
27 May 3.8 23:35:22 10° WNW 23:36:17 17° WNW 23:36:17 17° WNW visible
28 May 1.9 20:58:38 10° W 21:01:45 52° N 21:04:53 10° ENE visible
28 May 1.9 22:35:41 10° WNW 22:38:46 48° N 22:39:16 43° NE visible
29 May 2.2 21:35:56 10° WNW 21:39:00 43° N 21:42:03 10° ENE visible
29 May 2.9 23:12:44 10° WNW 23:14:23 28° WNW 23:14:23 28° WNW visible
30 May 1.4 22:13:03 10° WNW 22:16:12 61° NNE 22:17:15 36° E visible
31 May 1.9 21:13:19 10° WNW 21:16:25 48° N 21:19:31 10° E visible
31 May 2.2 22:50:05 10° WNW 22:52:17 38° W 22:52:17 38° W visible
01 Jun 1.0 21:50:20 10° WNW 21:53:32 88° NNE 21:55:08 26° ESE visible
02 Jun 2.2 22:27:30 10° W 22:30:09 32° SW 22:30:09 32° SW visible
03 Jun 1.3 21:27:37 10° WNW 21:30:45 57° SSW 21:33:01 17° SE visible
04 Jun 2.9 22:05:08 10° W 22:07:28 19° SW 22:08:05 18° SSW visible
